Weather History for Whiting Fld NAS, FL

Change the Weather History Date:

Monday, December 17, 2012

  Actual Average Record
Temperature  
Mean Temperature 66 °F -  
Max Temperature 71 °F 59 °F 78 °F (2008)
Min Temperature 57 °F 40 °F 28 °F (2000)
Growing Degree Days 16 (Base 50)    
Moisture  
Dew Point 60 °F    
Average Humidity 85    
Maximum Humidity 93    
Minimum Humidity 77    
Precipitation  
Precipitation 0.79 in - - ()
Sea Level Pressure  
Sea Level Pressure 29.80 in    
Wind  
Wind Speed 8 mph (SW)    
Max Wind Speed 17 mph    
Max Gust Speed 30 mph    
Visibility 7 miles    
Events Rain , Thunderstorm    
Averages and records for this station are not official NWS values.
T = Trace of Precipitation, MM = Missing Value Source: NWS Daily Summary

Daily Weather History Graph

Daily Weather History Graph

Search for Another Location

Airport:

Trip Planner

Search our weather history database for the weather conditions in past years. The results will help you decide how hot, cold, wet, or windy it might be!

Date:

Astronomy

Dec. 17, 2012 Rise Set
Actual Time 6:39 AM CST 4:49 PM CST
Civil Twilight 6:13 AM CST 5:16 PM CST
Nautical Twilight 5:42 AM CST 5:46 PM CST
Astronomical Twilight 5:13 AM CST 6:15 PM CST
Moon 10:04 AM CST (12/17) 9:51 PM CST (12/17)
Length of Visible Light 11h 03m
Length of Day
10h 09m
Waxing Crescent, 25% of the Moon is Illuminated
Dec 17
Waxing Crescent
Dec 19
First Quarter
Dec 28
Full
Jan 4
Last Quarter
Jan 11
New

Hourly Weather History & Observations

Time (CST) Temp. Dew Point Humidity Pressure Visibility Wind Dir Wind Speed Gust Speed Precip Events Conditions
12:56 AM 61.0 °F 55.0 °F 81% 29.82 in 10.0 mi East 8.1 mph - N/A   Clear
1:56 AM 61.0 °F 55.0 °F 81% 29.81 in 10.0 mi SE 10.4 mph - N/A   Partly Cloudy
2:56 AM 61.0 °F 54.0 °F 78% 29.81 in 10.0 mi East 3.5 mph - N/A   Clear
3:56 AM 61.0 °F 54.0 °F 78% 29.80 in 10.0 mi Calm Calm - N/A   Mostly Cloudy
4:56 AM 62.1 °F 55.0 °F 78% 29.77 in 10.0 mi SE 10.4 mph - N/A Thunderstorm Thunderstorm
5:40 AM 62.6 °F 55.4 °F 77% 29.82 in 9.0 mi SE 6.9 mph - 0.00 in Rain Light Rain
5:56 AM 63.0 °F 57.0 °F 81% 29.78 in 7.0 mi SE 10.4 mph - 0.00 in Rain Light Rain
6:42 AM 64.4 °F 59.0 °F 83% 29.82 in 10.0 mi SSE 9.2 mph - 0.02 in   Overcast
6:56 AM 66.0 °F 60.1 °F 81% 29.78 in 7.0 mi Variable 4.6 mph - 0.02 in   Overcast
7:30 AM 64.4 °F 60.8 °F 88% 29.82 in 7.0 mi ESE 3.5 mph - N/A   Overcast
7:56 AM 66.9 °F 64.0 °F 90% 29.76 in 6.0 mi South 5.8 mph - N/A   Overcast
8:31 AM 71.6 °F 68.0 °F 88% 29.81 in 5.0 mi SSW 13.8 mph - N/A Thunderstorm Overcast
8:46 AM 71.6 °F 68.0 °F 88% 29.81 in 4.0 mi SW 16.1 mph 21.9 mph 0.00 in Rain , Thunderstorm Light Thunderstorms and Rain
8:56 AM 69.1 °F 64.9 °F 87% 29.79 in 4.0 mi Variable 4.6 mph - 0.00 in Thunderstorm Overcast
9:13 AM 64.4 °F 60.8 °F 88% 29.84 in 7.0 mi NNW 17.3 mph 29.9 mph 0.00 in Rain , Thunderstorm Light Thunderstorms and Rain
9:17 AM 62.6 °F 59.0 °F 88% 29.86 in 3.0 mi NNW 16.1 mph 29.9 mph 0.01 in Rain , Thunderstorm Light Thunderstorms and Rain
9:21 AM 62.6 °F 59.0 °F 88% 29.86 in 2.0 mi NNW 12.7 mph 24.2 mph 0.10 in Rain , Thunderstorm Thunderstorms and Rain
9:35 AM 60.8 °F 57.2 °F 88% 29.87 in 1.0 mi North 9.2 mph 16.1 mph 0.35 in Rain , Thunderstorm Heavy Thunderstorms and Rain
9:44 AM 62.6 °F 59.0 °F 88% 29.86 in 0.8 mi West 10.4 mph 19.6 mph 0.58 in Rain , Thunderstorm Heavy Thunderstorms and Rain
9:56 AM 64.0 °F 60.1 °F 87% 29.82 in 3.0 mi SW 9.2 mph 17.3 mph 0.68 in Rain , Thunderstorm Light Thunderstorms and Rain
10:27 AM 64.4 °F 60.8 °F 88% 29.82 in 6.0 mi SW 8.1 mph 18.4 mph 0.05 in Rain , Thunderstorm Light Thunderstorms and Rain
10:49 AM 64.4 °F 60.8 °F 88% 29.82 in 6.0 mi SW 10.4 mph 18.4 mph 0.08 in Rain Light Rain
10:56 AM 64.0 °F 60.1 °F 87% 29.79 in 6.0 mi WSW 9.2 mph - 0.08 in Rain Light Rain
11:35 AM 64.4 °F 60.8 °F 88% 29.82 in 10.0 mi SSW 9.2 mph - 0.01 in   Overcast
11:56 AM 64.9 °F 61.0 °F 87% 29.78 in 10.0 mi WSW 4.6 mph - 0.01 in   Overcast
12:39 PM 66.2 °F 62.6 °F 88% 29.79 in 7.0 mi SSW 5.8 mph - 0.00 in Rain Light Rain
12:56 PM 66.9 °F 63.0 °F 87% 29.75 in 10.0 mi SW 3.5 mph - 0.00 in   Overcast
1:56 PM 66.9 °F 63.0 °F 87% 29.72 in 6.0 mi SSW 6.9 mph - N/A   Overcast
2:56 PM 66.0 °F 64.0 °F 93% 29.73 in 7.0 mi Variable 4.6 mph - N/A   Overcast
3:17 PM 68.0 °F 62.6 °F 83% 29.77 in 7.0 mi SW 4.6 mph - N/A   Overcast
3:56 PM 69.1 °F 62.1 °F 78% 29.74 in 7.0 mi WSW 6.9 mph - N/A   Overcast
6:56 PM 64.9 °F 60.1 °F 84% 29.77 in 7.0 mi WSW 6.9 mph - 0.00 in Rain Light Rain
7:26 PM 64.4 °F 60.8 °F 88% 29.82 in 7.0 mi WSW 5.8 mph - 0.00 in   Overcast
7:56 PM 64.0 °F 59.0 °F 84% 29.78 in 7.0 mi WSW 8.1 mph - 0.00 in   Overcast
8:56 PM 63.0 °F 57.0 °F 81% 29.80 in 6.0 mi West 10.4 mph - N/A   Scattered Clouds
9:56 PM 61.0 °F 55.9 °F 83% 29.82 in 5.0 mi West 6.9 mph - N/A   Partly Cloudy
10:56 PM 60.1 °F 55.0 °F 83% 29.81 in 7.0 mi WSW 6.9 mph - N/A   Partly Cloudy
11:56 PM 57.9 °F 53.1 °F 84% 29.82 in 5.0 mi West 6.9 mph - N/A   Haze